Regional Weather Roundup
Issued by NWS

Home | Current Version | Previous Version | Text Only | Print | Product List | Glossary On
Versions: 1 2 3 4 5 6 7 8 9 10 11 12 13 14 15 16 17 18 19 20 21 22 23 24 25 26 27 28 29 30 31 32 33 34 35 36 37 38 39 40 41 42 43 44 45 46 47 48 49 50
000
ASUS43 KDTX 301310
RWRMI
MICHIGAN HOURLY REGIONAL WEATHER ROUNDUP
NATIONAL WEATHER SERVICE DETROIT/PONTIAC MI
900 AM EDT SAT MAY 30 2015

NOTE: "FAIR" INDICATES FEW OR NO CLOUDS BELOW 12,000 FEET WITH NO
SIGNIFICANT WEATHER AND/OR OBSTRUCTION TO VISIBILITY.

MIZ047>049-052>055-059>063-066>070-074>076-081>083-301400-
SOUTHEAST LOWER MICHIGAN

CITY           SKY/WX    TMP DP  RH WIND       PRES   REMARKS
ADRIAN         PTSUNNY   73  66  78 W7        30.02R
ALMA           CLOUDY    69  66  92 SW5       29.97R
ANN ARBOR      MOSUNNY   74  66  76 SW10      30.00R
BAD AXE        CLOUDY    70  66  87 W9        29.96R
CARO           CLOUDY    71  68  89 SW7       29.95S
DETROIT CITY   MOSUNNY   75  66  73 SW12      29.99R
DETROIT        PTSUNNY   76  66  71 SW14      30.01R
FLINT          PTSUNNY   75  66  73 W9        29.97S
GROSSE ILE     MOSUNNY   73  66  78 SW7       29.99R
HILLSDALE      MOSUNNY   74  68  82 SW10      30.02R
HOWELL         PTSUNNY   73  66  78 SW6       29.99R

CITY           SKY/WX    TMP DP  RH WIND       PRES   REMARKS
JACKSON        CLOUDY    74  66  76 SW12      30.00R
LAMBERTVILLE   MOSUNNY   75  64  69 W9        30.02R
LANSING        CLOUDY    71  66  84 SW9       29.98R
LAPEER         CLOUDY    73  64  73 W8        29.98R
MASON          CLOUDY    71  64  79 SW5       29.99R
MONROE         MOSUNNY   73  66  78 SW9G16    29.99S
MT. CLEMENS    MOSUNNY   77  67  71 SW12      29.96S
PONTIAC        PTSUNNY   74  65  73 SW12      29.99R
PORT HOPE        N/A     71  67  87 W9        29.93R
PORT HURON     SUNNY     75  66  73 SW7       29.98R
TRI CITIES     CLOUDY    71  66  84 W9        29.96R
MIDLAND        FAIR      69  66  91 SW3       29.95R
TROY           MOSUNNY   74  66  76 SW13      30.01R
SAGINAW HB     CLOUDY    70  70 100 W10       29.96R
$$
MIZ043>046-050>051-056>058-064>065-071>073-077>080-301400-
SOUTHWEST LOWER MICHIGAN

CITY           SKY/WX    TMP DP  RH WIND       PRES   REMARKS
BATTLE CREEK   RAIN      68  66  93 SW9       30.01R FOG
BENTON HARBOR  LGT RAIN  67  66  97 SW7       29.99R FOG
BIG RAPIDS     LGT RAIN  65  61  88 NW7       29.97S
COLDWATER      CLOUDY    71  64  80 W13       30.01R
FREMONT        LGT RAIN  63  63  98 CALM      29.98R
HOLLAND        CLOUDY    62  60  93 S5        29.99R
GRAND RAPIDS   LGT RAIN  69  65  86 SW9       29.98R
IONIA          FAIR      70  66  89 SW8       29.97R
KALAMAZOO      LGT RAIN  69  66  90 SW6       30.00S
LUDINGTON      RAIN      56  54  92 N9        30.01R
MARSHALL       RAIN      70  67  90 SW9       30.00R
MOUNT PLEASANT CLOUDY    68  65  90 W3        29.96R
MUSKEGON       LGT RAIN  57  55  93 CALM      29.98S FOG
SOUTH HAVEN    LGT RAIN  66  65  94 SW3       29.98S
$$
MIZ016>042-301400-
NORTHERN LOWER MICHIGAN

CITY           SKY/WX    TMP DP  RH WIND       PRES   REMARKS
ALPENA         LGT RAIN  62  59  90 NW10      29.96R
BEAVER ISLAND  CLOUDY    47  45  92 NW6       30.06R
BELLAIRE       LGT RAIN  53  51  92 N8        30.04R
CADILLAC       RAIN      55  54  95 N7        30.01R
CHARLEVOIX     LGT RAIN  47  47 100 NW8       30.07R
FRANKFORT      LGT RAIN  50  44  81 N10G16    30.05R
GAYLORD        LGT RAIN  54  54 100 VRB6      30.01R
GRAYLING       DRIZZLE   57  55  92 NW5       30.00R
HARBOR SPRINGS DRIZZLE   49  48  93 NW5       30.02R
HOUGHTON LAKE  LGT RAIN  59  57  93 N7        29.99R
MANISTEE       CLOUDY    52  46  82 N7        30.03R
OSCODA         CLOUDY    65  64  96 N7        29.94R
PELLSTON       CLOUDY    51  48  89 NW13      30.03R
ROGERS CITY    DRIZZLE   56  54  95 NW12G17   29.99R
TRAVERSE CITY  LGT RAIN  50  49  96 N8        30.03R
$$
MIZ007>008-015-301400-
EASTERN UPPER MICHIGAN

CITY           SKY/WX    TMP DP  RH WIND       PRES   REMARKS
KINROSS        CLOUDY    46  46 100 NW16      30.00R
MACKINAC ISLAN CLOUDY    48  48 100 N10       30.02R
NEWBERRY       CLOUDY    45  43  93 N14G20    30.06R
S. S. MARIE    CLOUDY    48  45  89 NW9       30.00R
MUNISING         N/A     45  39  79 N17       30.12R
$$
MIZ004>006-011>014-085-301400-
CENTRAL UPPER MICHIGAN

CITY           SKY/WX    TMP DP  RH WIND       PRES   REMARKS
MANISTIQUE     CLOUDY    46  43  87 N15       30.07R
ESCANABA       CLOUDY    48  39  71 N9G22     30.09R
MENOMINEE      CLOUDY    50  45  81 NE14      30.08R
SAWYER-GWINN   PTSUNNY   46  39  76 N21G28    30.12R
$$
MIZ001>003-009>011-084-301400-
WESTERN UPPER MICHIGAN

CITY           SKY/WX    TMP DP  RH WIND       PRES   REMARKS
IRON MOUNTAIN  PTSUNNY   50  41  71 N17       30.11R
HOUGHTON       CLOUDY    45  38  76 N17G24    30.17R
COPPER HARBOR    N/A     42  36  79 NE7       30.20R
IRONWOOD       CLOUDY    45  43  93 N8        30.17R
$$

ABBREVIATIONS USED IN REMARKS
   TC - TEMPERATURE IN CELSIUS
  WCI - WIND CHILL INDEX
   HX - HEAT INDEX
  VSB - VISIBILITY



USA.gov is the U.S. government's official web portal to all federal, state and local government web resources and services.